GW3385 Weather Reports


time (UTC)temp
C
wind
direction
speed
KPH
gust
KPH
rain 1hr
cm
rain 24hr
cm
rain mn
cm
humidity
%
barometer
mb
20260510160557 16 0 1.6 3.2 0.00 0.00 0.00 87 1012.3
20260510160055 16 0 0.0 6.4 0.00 0.00 0.00 88 1012.3
20260510155559 16 0 0.0 6.4 0.00 0.00 0.00 87 1012.3
20260510155055 16 238 1.6 6.4 0.00 0.00 0.00 87 1012.3
20260510154559 16 202 3.2 6.4 0.00 0.00 0.00 88 1012.2
20260510154056 16 211 0.0 3.2 0.00 0.00 0.00 89 1012.1
20260510153555 16 0 0.0 3.2 0.00 0.00 0.00 89 1012.1
20260510153056 16 0 0.0 3.2 0.00 0.00 0.00 90 1012.2
20260510152559 16 0 0.0 3.2 0.00 0.00 0.00 90 1012.1
20260510152055 15 247 0.0 6.4 0.00 0.00 0.00 90 1012.2
20260510151601 15 0 0.0 6.4 0.00 0.00 0.00 90 1012.2
20260510151055 15 197 1.6 6.4 0.00 0.00 0.00 90 1012.2
20260510150556 15 0 0.0 4.8 0.00 0.00 0.00 91 1012.2
20260510150055 15 0 0.0 4.8 0.00 0.00 0.00 91 1012.2
20260510145556 15 0 0.0 4.8 0.00 0.00 0.00 91 1012.1
20260510145055 15 306 0.0 4.8 0.00 0.00 0.00 91 1012.1
20260510144554 15 0 0.0 4.8 0.00 0.00 0.00 92 1012.1
20260510144055 15 42 1.6 4.8 0.00 0.00 0.00 92 1012.2
20260510143555 15 0 0.0 6.4 0.00 0.00 0.00 92 1012.1
20260510143055 15 0 0.0 6.4 0.00 0.00 0.00 92 1012.1
20260510142558 15 11 1.6 6.4 0.00 0.00 0.00 92 1012.0
20260510142100 15 33 1.6 4.8 0.00 0.00 0.00 92 1012.1
20260510141602 15 0 0.0 4.8 0.00 0.00 0.00 92 1012.0
20260510141056 15 318 0.0 4.8 0.00 0.00 0.00 92 1012.0
20260510140555 15 0 0.0 3.2 0.00 0.00 0.00 93 1012.0
20260510140056 15 0 0.0 6.4 0.00 0.00 0.00 93 1012.0
20260510135556 15 338 0.0 6.4 0.00 0.00 0.00 93 1011.9
20260510135056 15 13 0.0 6.4 0.00 0.00 0.00 93 1011.9
20260510134607 15 0 0.0 0.0 0.00 0.00 0.00 93 1011.8
20260510134058 15 0 0.0 4.8 0.00 0.00 0.00 93 1011.8
20260510133555 15 0 0.0 6.4 0.00 0.00 0.00 93 1011.8
20260510133110 15 339 1.6 8.0 0.00 0.00 0.00 93 1011.8
20260510132555 15 336 1.6 8.0 0.00 0.00 0.00 93 1011.8
20260510132058 15 0 1.6 6.4 0.00 0.00 0.00 93 1011.8
20260510131603 15 0 0.0 4.8 0.00 0.00 0.00 94 1011.7
20260510131056 14 0 0.0 4.8 0.00 0.00 0.00 94 1011.7
20260510130556 14 0 0.0 4.8 0.00 0.00 0.00 94 1011.7
20260510130055 14 0 1.6 4.8 0.00 0.00 0.00 94 1011.6
20260510125555 14 0 0.0 4.8 0.00 0.00 0.00 94 1011.7
20260510125056 14 0 0.0 3.2 0.00 0.00 0.00 94 1011.7
20260510124558 14 0 0.0 4.8 0.00 0.00 0.00 94 1011.8
20260510124056 14 0 1.6 4.8 0.00 0.00 0.00 94 1011.8
20260510123556 14 0 0.0 4.8 0.00 0.00 0.00 94 1011.7
20260510123102 14 0 0.0 4.8 0.00 0.00 0.00 94 1011.7
20260510122558 14 59 0.0 4.8 0.00 0.00 0.00 94 1011.8
20260510122055 14 61 0.0 3.2 0.00 0.00 0.00 95 1011.8
20260510121554 14 0 0.0 3.2 0.00 0.00 0.00 95 1011.8
20260510121055 14 0 0.0 0.0 0.00 0.00 0.00 95 1011.7
20260510120556 14 0 0.0 0.0 0.00 0.00 0.00 95 1011.7
20260510120056 14 0 0.0 3.2 0.00 0.00 0.00 95 1011.7
20260510115558 14 0 0.0 4.8 0.00 0.00 0.00 95 1011.7
20260510115055 14 0 1.6 4.8 0.00 0.00 0.00 95 1011.7
20260510114604 14 0 0.0 3.2 0.00 0.00 0.00 95 1011.7
20260510114056 14 0 0.0 3.2 0.00 0.00 0.00 95 1011.8
20260510113557 14 0 0.0 3.2 0.00 0.00 0.00 95 1011.8
20260510113055 14 49 0.0 3.2 0.00 0.00 0.00 95 1011.7
20260510112556 14 0 0.0 4.8 0.00 0.00 0.00 95 1011.7
20260510112056 14 0 0.0 4.8 0.00 0.00 0.00 95 1011.7
20260510111600 14 0 1.6 4.8 0.00 0.00 0.00 95 1011.6
20260510111055 14 0 0.0 4.8 0.00 0.00 0.00 95 1011.6
20260510110556 14 0 0.0 4.8 0.00 0.00 0.00 95 1011.6
20260510110055 14 113 0.0 6.4 0.00 0.00 0.00 95 1011.6
20260510105556 14 150 0.0 6.4 0.00 0.00 0.00 95 1011.7
20260510105056 13 163 0.0 3.2 0.00 0.00 0.00 95 1011.7
20260510104554 13 0 0.0 4.8 0.00 0.00 0.00 95 1011.8
20260510104058 13 0 1.6 4.8 0.00 0.00 0.00 95 1011.7
20260510103555 13 48 0.0 6.4 0.00 0.00 0.00 95 1011.7
20260510103058 13 42 0.0 6.4 0.00 0.00 0.00 95 1011.6
20260510102556 13 53 1.6 6.4 0.00 0.00 0.00 95 1011.7
20260510102056 13 65 1.6 3.2 0.00 0.00 0.00 95 1011.6
20260510101556 13 65 0.0 3.2 0.00 0.00 0.00 95 1011.5
20260510101056 13 65 1.6 3.2 0.00 0.00 0.00 94 1011.6
20260510100556 13 0 0.0 0.0 0.00 0.00 0.00 95 1011.6
20260510100055 13 0 0.0 0.0 0.00 0.00 0.00 95 1011.7
20260510095556 13 0 0.0 0.0 0.00 0.00 0.00 94 1011.8
20260510095056 13 0 0.0 0.0 0.00 0.00 0.00 94 1011.8
20260510094554 13 0 0.0 3.2 0.00 0.00 0.00 95 1011.9
20260510094058 13 0 0.0 3.2 0.00 0.00 0.00 94 1011.9
20260510093555 13 67 0.0 4.8 0.00 0.00 0.00 94 1011.8
20260510093055 13 54 0.0 4.8 0.00 0.00 0.00 94 1011.9
20260510092555 13 55 0.0 8.0 0.00 0.00 0.00 94 1011.8
20260510092057 13 0 3.2 8.0 0.00 0.00 0.00 94 1011.8
20260510091559 13 58 1.6 8.0 0.00 0.00 0.00 94 1011.8
20260510091056 13 65 3.2 8.0 0.00 0.00 0.00 94 1011.8
20260510090556 13 62 0.0 6.4 0.00 0.00 0.00 94 1011.8
20260510090100 13 55 1.6 6.4 0.00 0.00 0.00 93 1011.8
20260510085559 13 0 0.0 9.7 0.00 0.00 0.00 94 1011.8
20260510085056 13 118 3.2 9.7 0.00 0.00 0.00 93 1011.8
20260510084555 13 67 1.6 6.4 0.00 0.00 0.00 93 1011.8
20260510084056 14 50 3.2 6.4 0.00 0.00 0.00 93 1011.7
20260510083556 14 59 1.6 6.4 0.00 0.00 0.00 93 1011.7
20260510083057 14 86 0.0 4.8 0.00 0.00 0.00 93 1011.7
20260510082555 14 0 0.0 6.4 0.00 0.00 0.00 93 1011.8
20260510082055 14 58 3.2 6.4 0.00 0.00 0.00 93 1011.8
20260510081556 14 65 3.2 6.4 0.00 0.00 0.00 93 1011.9
20260510081056 14 0 0.0 3.2 0.00 0.00 0.00 93 1011.9
20260510080555 14 109 0.0 4.8 0.00 0.00 0.00 93 1012.0
20260510080054 14 97 0.0 6.4 0.00 0.00 0.00 93 1012.0
20260510075557 14 64 1.6 6.4 0.00 0.00 0.00 93 1012.1
20260510075055 14 0 0.0 0.0 0.00 0.00 0.00 93 1012.1
20260510074557 14 0 0.0 0.0 0.00 0.00 0.00 93 1012.2
20260510074056 14 0 0.0 0.0 0.00 0.00 0.00 93 1012.1
20260510073556 14 0 0.0 0.0 0.00 0.00 0.00 93 1012.2
20260510073112 14 0 0.0 0.0 0.00 0.00 0.00 93 1012.2
20260510072556 14 0 0.0 0.0 0.00 0.00 0.00 93 1012.2
20260510072056 14 0 0.0 0.0 0.00 0.00 0.00 93 1012.2
20260510071605 14 0 0.0 3.2 0.00 0.00 0.00 92 1012.2
20260510071055 14 0 0.0 3.2 0.00 0.00 0.00 92 1012.3
20260510070555 14 55 0.0 3.2 0.00 0.00 0.00 92 1012.2
20260510070056 14 86 0.0 3.2 0.00 0.00 0.00 92 1012.2
20260510065556 14 0 0.0 4.8 0.00 0.00 0.00 92 1012.2
20260510065056 14 0 1.6 4.8 0.00 0.00 0.00 92 1012.3
20260510064600 14 0 0.0 4.8 0.00 0.00 0.00 92 1012.2
20260510064056 14 61 1.6 4.8 0.00 0.00 0.00 92 1012.3
20260510063556 14 0 0.0 3.2 0.00 0.00 0.00 92 1012.2
20260510063103 14 0 1.6 3.2 0.00 0.00 0.00 92 1012.2
20260510062556 14 0 0.0 3.2 0.00 0.00 0.00 92 1012.2
20260510062056 14 0 0.0 4.8 0.00 0.00 0.00 92 1012.2
20260510061558 14 0 0.0 4.8 0.00 0.00 0.00 92 1012.1
20260510061059 15 77 1.6 4.8 0.00 0.00 0.00 92 1012.2
20260510060557 14 171 0.0 3.2 0.00 0.00 0.00 92 1012.2
20260510060059 15 0 0.0 3.2 0.00 0.00 0.00 92 1012.2
20260510055558 14 0 0.0 4.8 0.00 0.00 0.00 92 1012.2
20260510055056 15 0 1.6 4.8 0.00 0.00 0.00 92 1012.2
20260510054559 15 167 0.0 1.6 0.00 0.00 0.00 92 1012.2
20260510054056 14 0 0.0 3.2 0.00 0.00 0.00 92 1012.3
20260510053555 14 0 0.0 4.8 0.00 0.00 0.00 92 1012.3
20260510053107 14 69 0.0 4.8 0.00 0.00 0.00 92 1012.3
20260510052555 15 0 0.0 4.8 0.00 0.00 0.00 92 1012.3
20260510052055 15 0 1.6 4.8 0.00 0.00 0.00 92 1012.3
20260510051601 15 0 0.0 3.2 0.00 0.00 0.00 92 1012.2
20260510051057 15 0 0.0 0.0 0.00 0.00 0.00 92 1012.3
20260510050557 15 0 0.0 1.6 0.00 0.00 0.00 93 1012.2
20260510050059 15 0 0.0 1.6 0.00 0.00 0.00 93 1012.1
20260510045556 14 0 0.0 0.0 0.00 0.00 0.00 93 1012.1
20260510045057 14 0 0.0 0.0 0.00 0.00 0.00 93 1012.2
20260510044554 14 0 0.0 0.0 0.00 0.00 0.00 93 1012.1
20260510044057 14 0 0.0 0.0 0.00 0.00 0.00 93 1012.1
20260510043648 14 0 0.0 3.2 0.00 0.00 0.00 93 1012.0
20260510043108 14 0 0.0 4.8 0.00 0.00 0.00 93 1011.9
20260510042555 14 0 0.0 4.8 0.00 0.00 0.00 93 1011.9
20260510042055 14 11 0.0 3.2 0.00 0.00 0.00 93 1011.9
20260510041558 14 0 0.0 3.2 0.00 0.00 0.00 93 1012.0
20260510041056 14 0 0.0 6.4 0.00 0.00 0.00 93 1011.9
20260510040556 14 309 0.0 6.4 0.00 0.00 0.00 93 1011.9
20260510040109 14 298 3.2 6.4 0.00 0.00 0.00 92 1011.9
20260510035556 14 0 0.0 11.3 0.00 0.00 0.00 93 1011.8
20260510035055 14 240 3.2 11.3 0.00 0.00 0.00 92 1011.9
20260510034600 14 272 3.2 11.3 0.00 0.00 0.00 92 1011.8
20260510034055 14 269 3.2 11.3 0.00 0.00 0.00 92 1011.8
20260510033557 14 0 1.6 6.4 0.00 0.00 0.00 92 1011.7
20260510033101 14 263 0.0 8.0 0.00 0.00 0.00 92 1011.6
20260510032556 14 289 1.6 9.7 0.00 0.00 0.00 92 1011.6
20260510032056 14 314 3.2 9.7 0.00 0.00 0.00 92 1011.5
20260510031557 14 272 1.6 6.4 0.00 0.00 0.00 92 1011.5
20260510031055 14 205 0.0 8.0 0.00 0.00 0.00 92 1011.4
20260510030555 14 0 1.6 11.3 0.00 0.00 0.00 92 1011.2
20260510030056 15 165 4.8 11.3 0.00 0.00 0.00 92 1011.2
20260510025555 15 281 3.2 9.7 0.00 0.00 0.00 92 1011.2
20260510025056 15 272 0.0 8.0 0.00 0.00 0.00 92 1011.1
20260510024558 15 0 0.0 11.3 0.00 0.00 0.00 92 1011.1
20260510024056 15 284 4.8 12.9 0.00 0.00 0.00 91 1011.1
20260510023555 15 264 4.8 12.9 0.00 0.00 0.00 91 1010.9
20260510023055 15 176 6.4 12.9 0.00 0.00 0.00 91 1010.8
20260510022556 15 219 4.8 9.7 0.00 0.00 0.00 91 1010.8
20260510022056 15 250 1.6 12.9 0.00 0.00 0.00 91 1010.8
20260510021600 15 189 6.4 14.5 0.00 0.00 0.00 91 1010.8
20260510021056 15 198 6.4 14.5 0.00 0.00 0.00 91 1010.7
20260510020556 15 181 4.8 11.3 0.00 0.00 0.00 91 1010.6
20260510020055 15 219 1.6 9.7 0.00 0.00 0.00 91 1010.7
20260510015555 15 273 3.2 11.3 0.00 0.00 0.00 91 1010.6
20260510015059 15 166 4.8 14.5 0.00 0.00 0.00 91 1010.6
20260510014611 15 287 6.4 16.1 0.00 0.00 0.00 91 1010.6
20260510014055 15 276 8.0 16.1 0.00 0.00 0.00 91 1010.6
20260510013558 15 267 8.0 17.7 0.00 0.00 0.00 91 1010.6
20260510013103 15 278 11.3 19.3 0.00 0.00 0.00 90 1010.7
20260510012555 15 275 9.7 19.3 0.00 0.00 0.00 89 1010.6
20260510012055 15 262 8.0 17.7 0.00 0.00 0.00 89 1010.6
20260510011557 15 275 11.3 20.9 0.00 0.00 0.00 89 1010.7
20260510011056 16 299 11.3 20.9 0.00 0.00 0.00 88 1010.6
20260510010556 16 200 9.7 17.7 0.00 0.00 0.00 88 1010.6
20260510010054 16 173 8.0 17.7 0.00 0.00 0.00 87 1010.6
20260510005556 16 215 8.0 17.7 0.00 0.00 0.00 87 1010.6
20260510005056 16 175 9.7 17.7 0.00 0.00 0.00 86 1010.6
20260510004559 16 187 8.0 17.7 0.00 0.00 0.00 86 1010.5
20260510004100 16 264 4.8 16.1 0.00 0.00 0.00 86 1010.4
20260510003556 16 172 8.0 16.1 0.00 0.00 0.00 85 1010.5
20260510003105 17 269 8.0 20.9 0.00 0.00 0.00 85 1010.4
20260510002555 17 215 9.7 20.9 0.00 0.00 0.00 84 1010.5
20260510002055 17 222 9.7 16.1 0.00 0.00 0.00 83 1010.6
20260510001555 17 171 6.4 19.3 0.00 0.00 0.00 84 1010.6
20260510001055 17 173 9.7 19.3 0.00 0.00 0.00 82 1010.7
20260510000556 17 228 8.0 22.5 0.00 0.00 0.00 83 1010.7
20260510000059 17 146 11.3 22.5 0.00 0.00 0.00 81 1010.7
20260509235556 18 269 8.0 19.3 0.00 0.00 0.00 82 1010.6
20260509235056 18 213 12.9 19.3 0.00 0.00 0.00 80 1010.7
20260509234558 18 171 4.8 16.1 0.00 0.00 0.00 79 1010.6
20260509234056 18 250 6.4 19.3 0.00 0.00 0.00 80 1010.6
20260509233600 18 227 8.0 19.3 0.00 0.00 0.00 80 1010.5
20260509233101 18 232 8.0 19.3 0.00 0.00 0.00 79 1010.5
20260509232559 18 162 4.8 19.3 0.00 0.00 0.00 79 1010.7
20260509232057 18 238 9.7 19.3 0.00 0.00 0.00 79 1010.6
20260509231558 18 214 6.4 20.9 0.00 0.00 0.00 80 1010.6
20260509231055 18 279 9.7 20.9 0.00 0.00 0.00 80 1010.7
20260509230555 18 182 11.3 20.9 0.00 0.00 0.00 79 1010.6
20260509230100 19 178 6.4 17.7 0.00 0.00 0.00 78 1010.7
20260509225556 19 223 9.7 17.7 0.00 0.00 0.00 79 1010.6
20260509225055 19 289 6.4 20.9 0.00 0.00 0.00 79 1010.7
20260509224605 18 189 9.7 20.9 0.00 0.00 0.00 80 1010.8
20260509224056 18 286 11.3 20.9 0.00 0.00 0.00 79 1010.9
20260509223555 19 277 9.7 20.9 0.00 0.00 0.00 80 1011.0
20260509223059 19 288 11.3 20.9 0.00 0.00 0.00 77 1011.1
20260509222559 19 228 6.4 17.7 0.00 0.00 0.00 78 1011.1
20260509222056 19 267 8.0 17.7 0.00 0.00 0.00 78 1011.1
20260509221606 20 254 9.7 20.9 0.00 0.00 0.00 76 1011.2
20260509221055 20 198 9.7 20.9 0.00 0.00 0.00 77 1011.3
20260509220558 20 173 11.3 20.9 0.00 0.00 0.00 78 1011.4
20260509220055 20 190 9.7 20.9 0.00 0.00 0.00 76 1011.4
20260509215556 20 130 8.0 17.7 0.00 0.00 0.00 77 1011.6
20260509215057 20 184 9.7 20.9 0.00 0.00 0.00 76 1011.6
20260509214604 20 261 6.4 20.9 0.00 0.00 0.00 77 1011.5
20260509214056 20 246 8.0 19.3 0.00 0.00 0.00 76 1011.6
20260509213557 20 182 8.0 17.7 0.00 0.00 0.00 75 1011.6
20260509213056 20 265 8.0 17.7 0.00 0.00 0.00 77 1011.7
20260509212555 20 175 8.0 20.9 0.00 0.00 0.00 76 1011.8
20260509212059 20 261 9.7 20.9 0.00 0.00 0.00 75 1011.8
20260509211558 20 236 8.0 16.1 0.00 0.00 0.00 76 1011.9
20260509211059 20 286 4.8 16.1 0.00 0.00 0.00 77 1011.9
20260509210556 20 200 8.0 19.3 0.00 0.00 0.00 76 1011.9
20260509210114 20 159 8.0 19.3 0.00 0.00 0.00 75 1012.0
20260509205556 20 222 6.4 19.3 0.00 0.00 0.00 76 1012.0
20260509205056 20 158 8.0 19.3 0.00 0.00 0.00 76 1012.2
20260509204600 20 242 6.4 19.3 0.00 0.00 0.00 76 1012.2
20260509204056 20 183 8.0 17.7 0.00 0.00 0.00 75 1012.2
20260509203556 20 149 6.4 14.5 0.00 0.00 0.00 76 1012.3
20260509203059 20 250 6.4 17.7 0.00 0.00 0.00 76 1012.3
20260509202556 20 254 6.4 17.7 0.00 0.00 0.00 76 1012.3
20260509202056 20 304 6.4 17.7 0.00 0.00 0.00 77 1012.1
20260509201602 20 269 8.0 17.7 0.00 0.00 0.00 77 1012.2
20260509201056 20 183 8.0 17.7 0.00 0.00 0.00 76 1012.2
20260509200556 20 266 9.7 19.3 0.00 0.00 0.00 77 1012.3
20260509200105 19 196 8.0 19.3 0.00 0.00 0.00 77 1012.3
20260509195557 20 240 9.7 17.7 0.00 0.00 0.00 77 1012.3
20260509195056 20 268 6.4 16.1 0.00 0.00 0.00 77 1012.4
20260509194608 20 256 8.0 17.7 0.00 0.00 0.00 77 1012.4
20260509194056 19 173 8.0 17.7 0.00 0.00 0.00 78 1012.4
20260509193556 20 215 9.7 17.7 0.00 0.00 0.00 76 1012.4
20260509193057 20 198 4.8 19.3 0.00 0.00 0.00 78 1012.4
20260509192600 19 234 4.8 20.9 0.00 0.00 0.00 78 1012.5
20260509192056 19 184 8.0 20.9 0.00 0.00 0.00 78 1012.5
20260509191603 19 298 6.4 14.5 0.00 0.00 0.00 78 1012.5
20260509191057 19 199 6.4 16.1 0.00 0.00 0.00 78 1012.6
20260509190555 19 177 9.7 19.3 0.00 0.00 0.00 78 1012.5
20260509190107 19 204 9.7 19.3 0.00 0.00 0.00 78 1012.8
20260509185556 19 209 8.0 16.1 0.00 0.00 0.00 79 1012.8
20260509185056 19 205 6.4 17.7 0.00 0.00 0.00 79 1012.9
20260509184556 19 178 8.0 19.3 0.00 0.00 0.00 79 1012.9
20260509184057 19 219 6.4 19.3 0.00 0.00 0.00 79 1012.8
20260509183555 19 167 9.7 20.9 0.00 0.00 0.00 78 1012.8
20260509183055 19 294 6.4 20.9 0.00 0.00 0.00 79 1012.8
20260509182555 19 201 6.4 19.3 0.00 0.00 0.00 78 1012.9
20260509182055 19 187 6.4 17.7 0.00 0.00 0.00 79 1012.8
20260509181600 19 299 6.4 17.7 0.00 0.00 0.00 79 1012.8
20260509181057 19 192 8.0 17.7 0.00 0.00 0.00 78 1012.8
20260509180557 19 236 6.4 16.1 0.00 0.00 0.00 79 1012.8
20260509180100 19 263 6.4 16.1 0.00 0.00 0.00 79 1013.0
20260509175556 19 229 6.4 14.5 0.00 0.00 0.00 78 1013.0
20260509175057 19 203 4.8 14.5 0.00 0.00 0.00 78 1012.9
20260509174554 19 199 4.8 14.5 0.00 0.00 0.00 77 1012.9
20260509174055 19 128 4.8 11.3 0.00 0.00 0.00 78 1012.9
20260509173555 19 0 1.6 12.9 0.00 0.00 0.00 79 1012.9
20260509173053 19 190 4.8 12.9 0.00 0.00 0.00 77 1013.0
20260509172557 19 236 3.2 11.3 0.00 0.00 0.00 77 1012.9
20260509172056 19 234 3.2 11.3 0.00 0.00 0.00 77 1013.0
20260509171557 19 221 3.2 9.7 0.00 0.00 0.00 77 1013.0
20260509171057 19 174 1.6 9.7 0.00 0.00 0.00 77 1013.0
20260509170556 19 35 1.6 11.3 0.00 0.00 0.00 78 1012.9
20260509170106 18 169 1.6 11.3 0.00 0.00 0.00 80 1012.9
20260509165556 18 62 4.8 11.3 0.00 0.00 0.00 80 1012.9
20260509165056 18 152 1.6 9.7 0.00 0.00 0.00 81 1012.7
20260509164558 18 0 1.6 6.4 0.00 0.00 0.00 82 1012.8
20260509164056 18 194 1.6 8.0 0.00 0.00 0.00 82 1012.7
20260509163556 17 169 1.6 8.0 0.00 0.00 0.00 83 1012.7
20260509163057 17 105 1.6 8.0 0.00 0.00 0.00 83 1012.7
20260509162556 17 0 0.0 3.2 0.00 0.00 0.00 84 1012.7
20260509162056 17 201 0.0 3.2 0.00 0.00 0.00 85 1012.7
20260509161600 17 0 0.0 3.2 0.00 0.00 0.00 84 1012.7
20260509161055 17 0 0.0 4.8 0.00 0.00 0.00 85 1012.7